Tracking 19574 objects as of 16-Feb-2019
HD Live streaming from Space Station
objects crossing your sky now

SOMP-2

Track SOMP-2 now!
10-day predictions
SOMP-2 is classified as:


NORAD ID: 42701
Int'l Code: 1998-067LJ
Perigee: 288.0 km
Apogee: 292.3 km
Inclination: 51.6 °
Period: 90.2 minutes
Semi major axis: 6661 km
RCS: Unknown
Launch date: November 20, 1998
Source: Germany (GER)
Launch site: TYURATAM MISSILE AND SPACE COMPLEX (TTMTR)

Uplink (MHz):
Downlink (MHz): 437.405
Beacon (MHz):
Mode: 9600bps GMSK
Call sign:
Status: Inactive

aabbcc
Your satellite tracking list
Your tracking list is empty




NASA's NSSDC Master Catalog

Two Line Element Set (TLE):
1 42701U 98067LJ  19046.78682928  .00161513  21611-4  37213-3 0  9995
2 42701  51.6297 174.9141 0003244 342.2253  17.8642 15.96910747100498
Source of the keplerian elements: AMSAT